Volver al catálogo

STARLINK-34793

ActivoComunicacionesSSO
NORAD 65064·PAYLOAD·🇺🇸 United States

Lanzado Jul 31, 2025 desde Vandenberg Space Force Base

Loading…

Próximos Pases (próximas 24 horas)

TLE

ActualizadoSource: CelesTrak SupGP

Época: Sep 15, 2026, 02:40 UTC

1 65064C 25165J   26258.11159722  .02182500  00000+0  82251-1 0  2585
2 65064  97.2842 329.4561 0001680  82.0801 246.0522 15.26045247    17

Sigue STARLINK-34793 en tiempo real con AllMySat

Download on the App Store